Location: Lombard
(41.8800°N, 88.0080°W)
Time: 14:03:26
(UTC-06:00)

Transit 4A - Pass Details

Date: 06 December 2023
Orbit: 870 x 973 km, 66.8° (Epoch: 03 March)

Event Time Altitude Azimuth Distance (km) Brightness Sun altitude
Rises 20:50:47 0° 245° (WSW) 3,660 11.5 -49.3°
Enters shadow 20:53:29 - 256° (WSW) 2,794 10.8 -49.8°
Reaches altitude 10° 20:53:45 10° 257° (WSW) 2,714 - -49.8°
Maximum altitude 20:59:05 28° 315° (NW) 1,746 - -50.8°
Drops below altitude 10° 21:04:23 10° 12° (NNE) 2,691 - -51.7°
Sets 21:07:21 0° 24° (NNE) 3,624 - -52.3°
